Zurück zum Katalog

NOAA 17 DEB

AktivPO
NORAD 48717·DEBRIS·🇺🇸 United States

Gestartet Jun 24, 2002 von Vandenberg Space Force Base

Loading…

Nächste Überflüge (nächste 24 Stunden)

TLE

AktuellSource: Space-Track

Epoche: Sep 13, 2026, 23:15 UTC

1 48717U 02032BA  26256.96908367  .00005389  00000-0  11995-2 0  9995
2 48717  98.7740 256.5979 0006878 358.7323   1.3855 14.57358535288171

Verfolge NOAA 17 DEB in Echtzeit mit AllMySat

Download on the App Store